www.pogodaiklimat.ru
ПОГОДА в Галляарале

Архив погоды в Галляарале (Джизакская область, Узбекистан)

Время
и дата
20:30 27.05
20:40 27.05
21:00 27.05
21:10 27.05
21:20 27.05
21:30 27.05
21:50 27.05
22:00 27.05
22:20 27.05
22:30 27.05
22:40 27.05
23:00 27.05
23:10 27.05
23:20 27.05
23:30 27.05
23:40 27.05
00:00 28.05
00:20 28.05
00:40 28.05
01:00 28.05
01:20 28.05
01:40 28.05
01:50 28.05
02:00 28.05
02:10 28.05
02:30 28.05
02:40 28.05
02:50 28.05
03:00 28.05
03:20 28.05
03:30 28.05
03:40 28.05
04:00 28.05
04:10 28.05
04:20 28.05
04:30 28.05
04:40 28.05
04:50 28.05
05:00 28.05
05:30 28.05
05:50 28.05
06:00 28.05
06:20 28.05
06:30 28.05
06:40 28.05
06:50 28.05
07:10 28.05
07:20 28.05
07:30 28.05
07:40 28.05
07:50 28.05
08:00 28.05
08:10 28.05
08:20 28.05
08:40 28.05
08:50 28.05
09:00 28.05
09:20 28.05
09:30 28.05
09:50 28.05
10:10 28.05
10:20 28.05
10:30 28.05
10:40 28.05
10:50 28.05
11:10 28.05
11:20 28.05
11:30 28.05
11:40 28.05
11:50 28.05
12:00 28.05
12:10 28.05
12:30 28.05
12:40 28.05
13:10 28.05
13:20 28.05
13:40 28.05
13:50 28.05
14:00 28.05
14:30 28.05
14:40 28.05
14:50 28.05
15:10 28.05
15:20 28.05
15:30 28.05
15:40 28.05
15:50 28.05
16:10 28.05
16:30 28.05
16:40 28.05
16:50 28.05
17:10 28.05
17:20 28.05
17:50 28.05
18:00 28.05
18:10 28.05
18:20 28.05
18:30 28.05
18:50 28.05
19:10 28.05
19:20 28.05
19:30 28.05
19:50 28.05
20:00 28.05
20:20 28.05
20:40 28.05
20:50 28.05
21:00 28.05
21:10 28.05
21:30 28.05
21:40 28.05
21:50 28.05
22:20 28.05
23:00 28.05
23:10 28.05
23:20 28.05
23:30 28.05
00:00 29.05
00:20 29.05
00:50 29.05
01:00 29.05
01:10 29.05
01:20 29.05
01:40 29.05
01:50 29.05
02:00 29.05
02:20 29.05
02:30 29.05
02:40 29.05
02:50 29.05
03:00 29.05
03:10 29.05
03:30 29.05
03:50 29.05
04:00 29.05
04:20 29.05
04:30 29.05
04:50 29.05
05:10 29.05
05:20 29.05
05:40 29.05
05:50 29.05
06:00 29.05
06:30 29.05
Ветер
(напр.,м/с)
Видимость Явления Солнечная радиация
(Вт/м2)
Т
(С)
Тd
(С)
f
(%)
Тe
(С)
Тes
(С)
Комфортность P
(гПа)
Po
(гПа)
Тmin
(С)
Tmax
(С)
R
(мм)
СВ 1.4
{2.7}
+21.0 +8.5 45 +23 +23 комфорт 1017.1 947.1 +21.1 +21.0
В 0.7
{2.0}
+20.1 +9.1 49 +23 +23 комфорт 1017.2 947.2 +21.0 +20.1
СЗ 1.2
{2.1}
+18.4 +9.9 57 +20 +20 1017.5 947.4 +18.7 +18.3
СЗ 0.8
{1.4}
+17.7 +10.2 61 +19 +19 1017.5 947.4 +18.4 +17.8
СЗ 0.5
{0.9}
+17.1 +11.4 69 +19 +19 1017.6 947.5 +17.7 +17.1
СЗ 0.8
{1.1}
+16.8 +11.9 73 +18 +18 1017.7 947.6 +17.1 +16.8
ЮЗ 0.9
{1.4}
+16.1 +14.6 91 +17 +17 1017.7 947.6 +16.8 +16.1
ЮЗ 1.1
{1.6}
+15.5 +15.5 100 +16 +16 1017.7 947.6 +16.1 +15.5
ЮЗ 0.7
{1.1}
+15.2 +15.2 100 +16 +16 1017.7 947.6 +15.2 +14.9
ЮЗ 0.7
{1.2}
+14.6 +14.6 100 +15 +15 1017.6 947.5 +15.2 +14.6
ЮЗ 0.8
{1.6}
+14.3 +14.3 100 +15 +15 1017.6 947.5 +14.6 +14.3
ЮЗ 1.5
{2.6}
+13.7 +13.7 100 +13 +13 1017.7 947.6 +14.0 +13.7
ЮЗ 1.0
{1.9}
+13.4 +13.4 100 +13 +13 1017.7 947.6 +13.7 +13.4
ЮЗ 1.0
{2.1}
+13.2 +13.2 100 +13 +13 1017.8 947.7 +13.4 +13.3
ЮЗ 1.2
{2.6}
+13.2 +13.2 100 +13 +13 1017.7 947.6 +13.3 +13.1
ЮЗ 1.1
{2.2}
+13.0 +13.0 100 +13 +13 1017.7 947.6 +13.2 +13.0
З 0.7
{1.1}
+12.4 +12.4 100 +13 +13 1017.7 947.6 +12.8 +12.4
Ю 0.6
{0.9}
+12.4 +12.4 100 +13 +13 1017.6 947.5 +12.5 +12.4
ЮЗ 1.5
{2.9}
+12.1 +12.1 100 +11 +11 1017.6 947.5 +12.2 +12.0
ЮЗ 0.6
{1.3}
+11.9 +11.9 100 +12 +12 1017.6 947.5 +12.0 +11.9
ЮЗ 0.2
{0.7}
+11.5 +11.5 100 +13 +13 1017.5 947.4 +11.8 +11.5
Ю 1.1
{1.8}
+11.9 +11.9 100 +11 +11 1017.4 947.3 +11.9 +11.6
Ю 0.8
{1.5}
+11.7 +11.7 100 +12 +12 1017.4 947.3 +11.9 +11.6
ЮЗ 0.7
{1.5}
+11.3 +11.3 100 +11 +11 1017.4 947.3 +11.7 +11.3
ЮЗ 0.9
{1.4}
+11.1 +11.1 100 +11 +11 1017.4 947.3 +11.3 +11.1
ЮЗ 0.9
{1.5}
+10.9 +10.9 100 +11 +11 1017.4 947.3 +11.0 +10.9
З 0.6
{1.2}
+11.0 +11.0 100 +11 +11 1017.3 947.2 +11.1 +10.9
З 0.4
{0.9}
+10.6 +10.6 100 +11 +11 1017.4 947.3 +11.0 +10.6
З 0.5
{1.5}
+10.4 +10.4 100 +11 +11 1017.4 947.3 +10.6 +10.4
З 0.6
{1.9}
+10.3 +10.3 100 +10 +10 1017.5 947.4 +10.4 +10.3
З 0.8
{1.5}
+10.1 +10.1 100 +10 +10 1017.6 947.5 +10.3 +10.1
СЗ 0.3
{0.9}
+9.9 +9.9 100 +11 +11 1017.6 947.5 +10.2 +9.9
З 0.3
{0.5}
+9.6 +9.6 100 +10 +10 1017.8 947.7 +9.7 +9.6
ЮЗ 0.6
{1.3}
+9.5 +9.5 100 +9 +9 1017.8 947.7 +9.6 +9.5
ЮЗ 0.7
{1.3}
+9.5 +9.5 100 +9 +9 1017.9 947.8 +9.6 +9.4
Ю 0.7
{1.2}
+9.5 +9.5 100 +9 +9 1017.9 947.8 +9.6 +9.4
ЮЗ 0.7
{1.2}
+9.4 +9.4 100 +9 +9 1018.0 947.9 +9.6 +9.4
Ю 0.6
{1.6}
+9.3 +9.3 100 +9 +9 1018.0 947.9 +9.5 +9.3
З 0.4
{0.8}
+9.1 +9.1 100 +10 +10 1018.0 947.9 +9.3 +9.1
З 0.7
{1.5}
+9.4 +9.4 100 +9 +9 1018.2 948.1 +9.4 +9.2
СЗ 0.4
{1.2}
+9.8 +9.8 100 +10 +10 1018.4 948.3 +9.8 +9.3
СЗ 0.5
{1.0}
+10.5 +10.5 100 +11 +11 1018.5 948.4 +10.4 +9.8
СЗ 1.2
{1.9}
+11.1 +11.1 100 +10 +10 1018.6 948.5 +11.1 +10.8
СЗ 0.9
{1.8}
+11.8 +11.8 100 +12 +12 1018.6 948.5 +11.8 +11.1
СЗ 1.2
{2.7}
+12.4 +12.4 100 +12 +12 1018.7 948.6 +12.5 +11.8
З 1.1
{2.3}
+13.7 +13.7 100 +14 +14 1018.7 948.6 +13.7 +12.4
СЗ 0.3
{0.9}
+15.8 +15.8 100 +17 +17 1018.6 948.5 +15.9 +14.7
ЮЗ 0.8
{1.7}
+16.5 +16.5 100 +17 +17 1018.6 948.5 +16.5 +15.7
ЮЗ 0.7
{1.6}
+17.3 +16.3 94 +19 +19 1018.6 948.5 +17.3 +16.5
ЮЗ 0.7
{1.4}
+18.2 +14.6 79 +20 +20 1018.6 948.5 +18.2 +17.3
Ю 0.7
{1.3}
+18.9 +12.9 68 +21 +21 комфорт 1018.7 948.6 +18.9 +18.2
ЮВ 0.4
{1.2}
+20.1 +13.9 67 +24 +24 комфорт 1018.8 948.7 +20.1 +18.9
С 0.5
{1.3}
+21.2 +9.0 46 +22 +22 комфорт 1018.8 948.7 +21.5 +20.1
ЮВ 0.5
{1.2}
+21.7 +9.0 44 +23 +23 комфорт 1018.8 948.7 +21.8 +21.1
СВ 4.4
{7.5}
+23.8 +0.9 22 +23 +23 комфорт 1018.8 948.7 +23.8 +23.1
СВ 4.2
{7.4}
+24.1 +0.3 21 +23 +23 комфорт 1018.9 948.8 +24.3 +23.8
СВ 4.2
{7.1}
+24.3 -1.9 18 +23 +23 комфорт 1018.9 948.8 +24.4 +24.1
СВ 4.8
{7.8}
+24.5 -0.5 19 +23 +23 комфорт 1018.8 948.7 +24.7 +24.2
СВ 4.4
{8.1}
+25.0 -0.1 19 +23 +23 комфорт 1018.8 948.7 +25.0 +24.5
СВ 4.5
{9.5}
+25.2 -0.5 18 +23 +23 комфорт 1018.9 948.8 +25.3 +24.6
СВ 4.8
{8.5}
+25.4 +1.5 21 +24 +24 комфорт 1019.0 948.9 +25.3 +24.9
СВ 5.1
{9.5}
+25.3 -1.6 17 +23 +23 комфорт 1019.0 948.9 +25.7 +24.9
СВ 4.5
{8.4}
+25.7 -2.7 15 +24 +24 комфорт 1019.2 949.0 +26.0 +25.0
СВ 4.5
{8.3}
+25.6 -1.5 17 +24 +24 комфорт 1019.2 949.0 +25.9 +25.3
СВ 4.3
{8.0}
+26.0 +1.0 20 +24 +24 комфорт 1019.3 949.1 +25.9 +25.4
СВ 4.6
{8.9}
+26.1 -1.4 16 +24 +24 комфорт 1019.4 949.2 +26.3 +25.4
СВ 4.7
{8.5}
+26.6 -2.2 15 +24 +24 комфорт 1019.4 949.2 +26.8 +25.8
СВ 4.7
{8.7}
+26.5 -0.9 16 +24 +24 комфорт 1019.4 949.2 +26.6 +25.9
СВ 5.0
{8.4}
+25.7 -3.4 14 +23 +23 комфорт 1019.4 949.2 +26.6 +25.6
СВ 4.2
{8.3}
+27.1 +0.2 17 +25 +25 комфорт 1019.5 949.3 +27.1 +25.7
СВ 4.8
{8.9}
+26.9 -3.0 14 +24 +24 комфорт 1019.5 949.3 +27.1 +26.2
СВ 5.1
{9.4}
+25.9 -3.8 14 +24 +24 комфорт 1019.4 949.2 +26.9 +25.8
СВ 5.0
{8.5}
+26.3 -4.0 13 +24 +24 комфорт 1019.4 949.2 +26.9 +26.2
СВ 4.2
{8.2}
+26.9 -3.0 14 +24 +24 комфорт 1019.4 949.2 +27.1 +26.3
СВ 4.7
{9.4}
+27.0 -2.0 15 +25 +25 комфорт 1019.4 949.2 +27.3 +26.5
СВ 4.7
{10.6}
+26.9 -3.9 13 +24 +24 комфорт 1019.4 949.2 +27.6 +26.8
С 3.5
{7.4}
+27.5 -0.2 16 +25 +25 комфорт 1019.4 949.2 +27.5 +26.7
С 4.2
{8.3}
+27.2 -1.9 15 +25 +25 комфорт 1019.4 949.2 +27.5 +26.9
СВ 4.6
{8.7}
+27.6 -0.7 16 +25 +25 комфорт 1019.4 949.2 +27.7 +27.0
СВ 4.7
{9.1}
+27.2 -0.2 17 +25 +25 комфорт 1019.3 949.1 +27.8 +27.1
СВ 4.3
{8.2}
+27.5 +1.4 18 +25 +25 комфорт 1019.3 949.1 +27.5 +26.6
СВ 4.6
{8.7}
+26.8 -1.0 16 +25 +25 комфорт 1019.3 949.1 +27.7 +26.8
СВ 4.2
{8.6}
+27.3 0.0 17 +25 +25 комфорт 1019.2 949.0 +27.4 +26.8
В 4.9
{10.4}
+27.2 -0.1 17 +25 +25 комфорт 1019.2 949.0 +27.6 +27.1
СВ 4.4
{9.2}
+27.2 -0.1 17 +25 +25 комфорт 1019.2 949.0 +27.5 +26.9
СВ 4.1
{7.7}
+27.4 +0.7 18 +25 +25 комфорт 1019.2 949.0 +27.7 +27.1
СВ 4.1
{9.0}
+27.0 0.0 17 +25 +25 комфорт 1019.2 949.0 +27.6 +27.0
СВ 4.3
{7.2}
+26.9 +0.7 18 +25 +25 комфорт 1019.2 949.0 +27.4 +26.8
СВ 4.5
{9.3}
+27.0 +0.8 18 +25 +25 комфорт 1019.3 949.1 +27.2 +26.5
СВ 4.3
{8.3}
+27.0 +1.3 19 +25 +25 комфорт 1019.2 949.0 +27.2 +26.6
В 4.3
{9.8}
+26.9 +0.6 18 +25 +25 комфорт 1019.2 949.0 +27.0 +26.7
СВ 3.7
{7.0}
+26.7 +0.7 18 +25 +25 комфорт 1019.2 949.0 +26.8 +26.6
СВ 4.4
{7.2}
+26.3 -0.4 17 +24 +24 комфорт 1019.2 949.0 +26.8 +26.4
СВ 3.6
{6.9}
+26.2 +0.9 19 +24 +24 комфорт 1019.2 949.0 +26.5 +26.1
СВ 4.0
{6.9}
+26.1 +0.8 19 +24 +24 комфорт 1019.2 949.0 +26.2 +26.1
СВ 3.9
{7.0}
+25.8 -0.3 18 +24 +24 комфорт 1019.2 949.0 +26.1 +25.8
СВ 4.2
{6.8}
+25.6 -0.5 18 +24 +24 комфорт 1019.2 949.0 +25.8 +25.6
СВ 3.9
{7.2}
+25.5 0.0 19 +24 +24 комфорт 1019.2 949.0 +25.6 +25.5
СВ 3.5
{6.9}
+25.0 +0.5 20 +24 +24 комфорт 1019.2 949.0 +25.3 +25.0
СВ 3.2
{6.0}
+24.3 +1.2 22 +23 +23 комфорт 1019.4 949.2 +24.7 +24.3
СВ 2.8
{5.6}
+23.9 +1.5 23 +23 +23 комфорт 1019.4 949.2 +24.3 +23.9
СВ 3.0
{4.9}
+23.6 +1.4 23 +23 +23 комфорт 1019.5 949.3 +24.0 +23.6
СВ 2.8
{4.8}
+22.9 +1.8 25 +22 +22 комфорт 1019.6 949.4 +23.3 +22.9
СВ 2.9
{5.2}
+22.5 +2.3 26 +22 +22 комфорт 1019.5 949.3 +22.9 +22.6
СВ 2.9
{5.3}
+22.1 +2.4 27 +22 +22 комфорт 1019.6 949.4 +22.5 +22.1
СВ 2.5
{4.2}
+21.4 +2.9 29 +21 +21 комфорт 1019.7 949.5 +21.7 +21.4
В 2.0
{3.9}
+20.8 +3.2 31 +22 +22 комфорт 1019.8 949.6 +21.4 +20.8
СВ 2.4
{4.0}
+20.9 +3.2 31 +22 +22 комфорт 1019.9 949.7 +20.9 +20.8
СВ 2.3
{3.8}
+20.9 +3.2 31 +22 +22 комфорт 1020.0 949.8 +20.9 +20.8
Ю 0.4
{0.8}
+18.3 +5.4 42 +20 +20 1020.1 949.9 +20.0 +18.3
Ю 1.0
{1.7}
+17.8 +5.6 45 +19 +19 1020.1 949.9 +18.3 +17.8
ЮЗ 0.9
{1.5}
+17.1 +6.7 50 +18 +18 1020.2 950.0 +17.9 +17.1
ЮЗ 0.9
{1.4}
+15.8 +7.1 56 +17 +17 1020.1 949.9 +16.3 +15.8
ЮЗ 0.5
{0.9}
+14.0 +9.5 74 +15 +15 1020.1 949.9 +14.2 +14.0
СЗ 1.7
{4.7}
+14.1 +9.6 74 +14 +14 1020.3 950.1 +14.1 +13.9
СВ 2.3
{5.6}
+17.8 +5.3 44 +18 +18 1020.3 950.1 +17.7 +14.0
СВ 4.3
{7.3}
+18.8 +4.6 39 +19 +19 1020.2 950.0 +18.9 +17.8
СВ 4.1
{7.2}
+18.8 +3.8 37 +19 +19 1020.4 950.2 +19.2 +18.6
СВ 3.0
{5.9}
+17.8 +4.0 40 +18 +18 1020.3 950.1 +17.9 +17.6
СВ 2.8
{5.3}
+18.4 +2.9 36 +19 +19 1020.2 950.0 +18.6 +18.3
СВ 2.8
{5.8}
+18.2 +2.9 36 +18 +18 1020.2 950.0 +18.5 +18.2
СВ 2.9
{5.3}
+18.3 +2.8 36 +19 +19 1020.2 950.0 +18.5 +18.1
СВ 2.3
{4.0}
+18.1 +2.9 36 +19 +19 1020.2 950.0 +18.3 +18.0
СВ 2.0
{4.2}
+17.5 +3.1 38 +18 +18 1020.1 949.9 +17.9 +17.5
СВ 2.3
{5.0}
+17.7 +2.7 37 +18 +18 1020.1 949.9 +17.8 +17.4
СВ 2.6
{4.8}
+17.6 +2.7 37 +18 +18 1020.1 949.9 +17.9 +17.7
В 2.4
{4.6}
+16.9 +2.9 39 +17 +17 1020.1 949.9 +16.9 +16.7
В 2.0
{4.5}
+16.5 +3.0 40 +17 +17 1020.2 950.0 +16.9 +16.5
В 2.1
{4.4}
+16.5 +2.8 40 +17 +17 1020.1 949.9 +16.6 +16.4
В 1.8
{3.1}
+16.4 +2.5 39 +17 +17 1020.1 949.9 +16.5 +16.3
В 1.6
{3.7}
+16.1 +2.5 40 +17 +17 1020.2 950.0 +16.4 +16.1
В 1.6
{3.2}
+16.0 +2.3 40 +16 +16 1020.1 949.9 +16.2 +15.9
В 1.8
{3.8}
+16.0 +2.1 39 +16 +16 1020.1 949.9 +16.2 +16.0
В 1.3
{2.2}
+15.3 +2.6 42 +16 +16 1020.0 949.8 +15.7 +15.3
В 0.9
{2.1}
+14.7 +3.0 45 +16 +16 1020.1 949.9 +15.3 +14.7
ЮВ 0.9
{1.9}
+13.9 +4.0 51 +15 +15 1020.1 949.9 +14.7 +14.0
ЮВ 1.0
{1.8}
+13.6 +4.2 53 +14 +14 1020.0 949.8 +13.9 +13.6
Ю 1.2
{1.9}
+13.3 +4.5 55 +14 +14 1020.0 949.8 +13.5 +13.3
ЮВ 0.5
{0.9}
+12.1 +5.7 65 +13 +13 1020.1 949.9 +12.9 +12.1
ЮВ 1.0
{1.5}
+12.3 +5.4 63 +12 +12 1020.1 949.9 +12.3 +12.0
Ю 0.3
{0.7}
+12.5 +7.3 71 +14 +14 1020.1 949.9 +12.5 +12.3
Ю 0.3
{0.6}
+13.1 +8.4 73 +15 +15 1020.1 949.9 +13.1 +12.5
ЮВ 0.5
{0.9}
+14.5 +8.4 67 +16 +16 1020.2 950.0 +14.5 +13.1
Ю 0.7
{1.3}
+14.8 +8.2 65 +16 +16 1020.0 949.8 +14.7 +13.8
Местоположение метеостанции Галляарал (Джизакская область, Узбекистан): широта 40.03 долгота 67.58 высота над уровнем моря 0 м.
В архиве по умолчанию представлена погода в Галляарале за последние 1-2 суток. Обновление информации о фактической погоде в базе происходит ежечасно! Архивные данные за месяц целиком и за предыдущие месяцы Вы можете получить, выбрав интересующий диапазон дат из раскрывающегося списка и нажав кнопку "Ввод!".
*Определитесь, кто Вы:
Внимание! Время в таблицах - местное (без учета летнего времени). Для получения всемирного времени необходимо вычесть поправку, которая равна 5 ч.
Смотрите также архив погоды на ближайших метеорологических станциях:
Партнеры нашего сайта:      
Пояснения к столбцам:
  • Ветер - указаны скорость ветра в м/с - средняя за 10 мин, порывы в срок и между сроками (в фигурных скобках) и направление, откуда дует ветер: С - северный,
  • СВ - северо-восточный, В - восточный, ЮВ - юго-восточный, Ю - южный, ЮЗ - юго-западный, З - западный, СЗ - северо-западный.
  • Видимость - горизонтальная дальность видимости в метрах или километрах. При видимости от 1 до 10 км при отсутствии осадков обычно наблюдается дымка, при ухудшении видимости до 1 км и менее - туман. В сухую погоду видимость может ухудшаться дымом, пылью или мглою.
  • Явления - указаны атмосферные явления, наблюдавшиеся в срок или в последний час перед сроком.
  • Солнечная радиация - мощность потока солнечного излучения на поверхность земли и предметов в Вт/м2.
  • T - Температура воздуха - температура, измеренная на высоте 2 м над землей.
  • Td - Температура точки росы - температура, при понижении до которой содержащийся в воздухе водяной пар достигнет насыщения.
  • f - Относительная влажность воздуха - влажноcть воздуха, измеренная на высоте 2 м над землей.
  • Te - Эффективная температура - температура, которую ощущает одетый по сезону человек в тени. Характеристика душности погоды. При расчете учитывается влияние влажности воздуха и скорости ветра на теплоощущения человека.
  • Tes - Эффективная температура на солнце - температура, которую ощущает человек, с поправкой на солнечный нагрев. Характеристика знойности погоды. Зависит от высоты солнца над горизонтом, облачности и скорости ветра. Ночью, в пасмурную погоду, а также при ветре 12 м/с и более поправка равна нулю.
  • P - Атмосферное давление - приведенное к уровню моря атмосферное давление.
  • Po - Атмосферное давление - измеренное на уровне метеостанции атмосферное давление.
  • Tmin - Минимальная температура - минимум температуры воздуха на высоте 2 м над землей.
  • Tmax - Максимальная температура - максимум температуры воздуха на высоте 2 м над землей.
  • R - Количество осадков - Количество выпавших осадков за период времени, мм. При наведении курсора мыши на число - период времени, за который выпало указанное количество осадков.